LA3SP-12 Weather Reports


Display with metric or nautical units.
time (UTC)temp
F
wind
direction
speed
MPH
gust
MPH
rain 1hr
in
rain 24hr
in
rain mn
in
humidity
%
barometer
mb
20260507234503 28 0 0.0 0.0 0.00 0.00 0.00 65 1018.0
20260507233605 28 0 0.0 0.0 0.00 0.00 0.00 65 1018.0
20260507232913 28 0 0.0 0.0 0.00 0.00 0.00 65 1017.9
20260507231803 28 0 0.0 0.0 0.00 0.00 0.00 64 1017.9
20260507230903 28 0 0.0 0.0 0.00 0.00 0.00 63 1017.9
20260507230003 29 0 0.0 0.0 0.00 0.00 0.00 62 1017.8
20260507225616 29 0 0.0 0.0 0.00 0.00 0.00 62 1017.7
20260507224504 29 0 0.0 0.0 0.00 0.00 0.00 60 1017.7
20260507223605 30 0 0.0 0.0 0.00 0.00 0.00 60 1017.8
20260507222703 30 0 0.0 0.0 0.00 0.00 0.00 59 1017.6
20260507222016 31 0 0.0 0.0 0.00 0.00 0.00 58 1017.7
20260507221113 31 0 0.0 0.0 0.00 0.00 0.00 57 1017.6
20260507220003 32 0 0.0 0.0 0.00 0.00 0.00 55 1017.6
20260507215617 32 0 0.0 0.0 0.00 0.00 0.00 55 1017.6
20260507214503 32 0 0.0 0.0 0.00 0.00 0.00 53 1017.5
20260507213603 32 0 0.0 0.0 0.00 0.00 0.00 54 1017.4
20260507212703 32 0 0.0 0.0 0.00 0.00 0.00 54 1017.3
20260507211803 32 0 0.0 0.0 0.00 0.00 0.00 53 1017.2
20260507211114 32 0 0.0 0.0 0.00 0.00 0.00 53 1017.2
20260507210003 32 0 0.0 0.0 0.00 0.00 0.00 52 1017.2
20260507205404 32 0 0.0 0.0 0.00 0.00 0.00 52 1017.2
20260507204503 32 0 0.0 0.0 0.00 0.00 0.00 51 1017.0
20260507203812 33 0 0.0 0.0 0.00 0.00 0.00 50 1017.0
20260507202703 33 0 0.0 0.0 0.00 0.00 0.00 50 1017.1
20260507202017 33 45 0.0 1.0 0.00 0.00 0.00 49 1017.2
20260507201115 34 0 0.0 0.0 0.00 0.00 0.00 47 1017.0
20260507200004 35 0 0.0 0.0 0.00 0.00 0.00 45 1016.8
20260507195411 35 0 0.0 0.0 0.00 0.00 0.00 43 1016.7
20260507194716 36 0 0.0 0.0 0.00 0.00 0.00 42 1016.7
20260507193813 37 0 0.0 0.0 0.00 0.00 0.00 41 1016.5
20260507192705 38 315 0.0 1.0 0.00 0.00 0.00 40 1016.2
20260507191803 39 315 1.0 1.0 0.00 0.00 0.00 38 1015.9
20260507190903 40 0 0.0 0.0 0.00 0.00 0.00 36 1015.6
20260507190004 40 46 0.0 3.0 0.00 0.00 0.00 35 1015.5
20260507185614 41 38 3.0 3.0 0.00 0.00 0.00 35 1015.6
20260507184503 42 61 2.0 4.0 0.00 0.00 0.00 34 1015.8
20260507183814 42 58 4.0 6.0 0.00 0.00 0.00 34 1015.9
20260507182916 43 42 6.0 6.0 0.00 0.00 0.00 33 1016.1
20260507182013 43 19 3.0 4.0 0.00 0.00 0.00 33 1016.1
20260507180903 44 26 3.0 3.0 0.00 0.00 0.00 32 1016.0
20260507180003 45 69 0.0 5.0 0.00 0.00 0.00 31 1016.1
20260507175615 45 55 0.0 5.0 0.00 0.00 0.00 31 1016.1
20260507174718 47 312 2.0 2.0 0.00 0.00 0.00 30 1016.3
20260507173814 47 159 0.0 2.0 0.00 0.00 0.00 29 1016.5
20260507172917 47 174 0.0 2.0 0.00 0.00 0.00 29 1016.8
20260507171803 47 153 2.0 2.0 0.00 0.00 0.00 29 1017.1
20260507171116 48 159 2.0 2.0 0.00 0.00 0.00 28 1016.7
20260507170005 49 160 3.0 3.0 0.00 0.00 0.00 27 1016.5
20260507165615 49 157 0.0 1.0 0.00 0.00 0.00 29 1016.3
20260507164712 47 193 0.0 4.0 0.00 0.00 0.00 28 1016.4
20260507163603 48 197 4.0 4.0 0.00 0.00 0.00 27 1016.3
20260507162705 49 218 0.0 3.0 0.00 0.00 0.00 27 1016.3
20260507161803 50 165 1.0 3.0 0.00 0.00 0.00 27 1016.2
20260507161117 50 200 3.0 3.0 0.00 0.00 0.00 27 1016.3
20260507160003 51 133 2.0 4.0 0.00 0.00 0.00 28 1016.3
20260507155616 50 158 0.0 4.0 0.00 0.00 0.00 28 1016.4
20260507154713 50 147 4.0 4.0 0.00 0.00 0.00 27 1016.5
20260507153603 49 174 1.0 2.0 0.00 0.00 0.00 27 1016.3
20260507152703 49 206 2.0 2.0 0.00 0.00 0.00 25 1016.3
20260507151808 51 173 2.0 5.0 0.00 0.00 0.00 26 1016.3
20260507150903 51 175 5.0 5.0 0.00 0.00 0.00 24 1016.3
20260507150004 51 225 2.0 8.0 0.00 0.00 0.00 27 1016.2
20260507145403 50 237 3.0 8.0 0.00 0.00 0.00 24 1016.2
20260507144714 49 310 3.0 3.0 0.00 0.00 0.00 25 1016.2
20260507143816 50 253 2.0 4.0 0.00 0.00 0.00 24 1016.2
20260507142703 49 270 3.0 6.0 0.00 0.00 0.00 27 1016.1
20260507141803 47 258 4.0 7.0 0.00 0.00 0.00 24 1016.2
20260507140903 47 252 4.0 7.0 0.00 0.00 0.00 23 1016.1
20260507140003 49 240 6.0 10.0 0.00 0.00 0.00 23 1016.1
20260507135403 49 260 4.0 10.0 0.00 0.00 0.00 24 1016.0
20260507134503 50 250 5.0 5.0 0.00 0.00 0.00 27 1016.0
20260507133604 50 238 5.0 6.0 0.00 0.00 0.00 28 1016.0
20260507132703 51 248 6.0 9.0 0.00 0.00 0.00 29 1016.0
20260507131805 51 243 2.0 6.0 0.00 0.00 0.00 30 1016.0
20260507130903 50 291 4.0 5.0 0.00 0.00 0.00 30 1015.9
20260507130216 52 216 5.0 6.0 0.00 0.00 0.00 29 1015.9
20260507125403 50 235 6.0 6.0 0.00 0.00 0.00 32 1016.0
20260507124715 49 243 5.0 6.0 0.00 0.00 0.00 32 1015.9
20260507123603 52 235 3.0 6.0 0.00 0.00 0.00 29 1015.9
20260507122705 53 289 5.0 11.0 0.00 0.00 0.00 33 1015.8
20260507121804 54 288 2.0 4.0 0.00 0.00 0.00 31 1015.9
20260507121114 52 304 2.0 8.0 0.00 0.00 0.00 33 1015.9
20260507120004 53 231 7.0 7.0 0.00 0.00 0.00 31 1015.8
20260507115403 57 190 4.0 5.0 0.00 0.00 0.00 28 1015.9
20260507114503 58 129 3.0 6.0 0.00 0.00 0.00 29 1015.9
20260507113605 57 59 2.0 5.0 0.00 0.00 0.00 31 1016.0
20260507112915 56 102 2.0 3.0 0.00 0.00 0.00 31 1015.9
20260507112013 58 34 3.0 4.0 0.00 0.00 0.00 32 1016.0
20260507110903 56 48 5.0 5.0 0.00 0.00 0.00 33 1016.2
20260507110003 55 16 1.0 4.0 0.00 0.00 0.00 34 1016.1
20260507105403 53 5 3.0 4.0 0.00 0.00 0.00 37 1016.1
20260507104716 52 328 4.0 6.0 0.00 0.00 0.00 35 1016.1
20260507103814 51 348 4.0 6.0 0.00 0.00 0.00 42 1016.0
20260507102703 44 295 6.0 12.0 0.00 0.00 0.00 43 1016.2
20260507102013 42 220 2.0 5.0 0.00 0.00 0.00 46 1016.2
20260507101116 42 204 5.0 7.0 0.00 0.00 0.00 43 1015.9
20260507100213 43 250 2.0 6.0 0.00 0.00 0.00 44 1015.7
20260507095403 41 208 6.0 6.0 0.00 0.00 0.00 46 1015.6
20260507094717 41 220 4.0 5.0 0.00 0.00 0.00 45 1015.4
20260507093603 42 227 5.0 5.0 0.00 0.00 0.00 44 1015.3
20260507092703 43 236 2.0 6.0 0.00 0.00 0.00 43 1015.2
20260507092014 43 230 5.0 5.0 0.00 0.00 0.00 43 1015.1
20260507091116 44 253 2.0 8.0 0.00 0.00 0.00 42 1014.9
20260507090004 44 204 5.0 7.0 0.00 0.00 0.00 42 1014.8
20260507085615 44 232 6.0 7.0 0.00 0.00 0.00 41 1014.7
20260507084503 48 347 4.0 4.0 0.00 0.00 0.00 40 1014.5
20260507083605 46 316 1.0 3.0 0.00 0.00 0.00 44 1014.4
20260507082703 44 330 1.0 4.0 0.00 0.00 0.00 44 1014.3
20260507082015 44 354 3.0 3.0 0.00 0.00 0.00 47 1014.2
20260507081117 42 298 1.0 5.0 0.00 0.00 0.00 49 1014.0
20260507080003 38 150 1.0 2.0 0.00 0.00 0.00 49 1013.8
20260507075616 38 186 2.0 5.0 0.00 0.00 0.00 49 1013.7
20260507074713 39 242 1.0 5.0 0.00 0.00 0.00 48 1014.0
20260507073603 39 250 4.0 4.0 0.00 0.00 0.00 48 1014.3
20260507072913 40 244 3.0 3.0 0.00 0.00 0.00 48 1014.3
20260507071803 40 263 0.0 6.0 0.00 0.00 0.00 49 1014.4
20260507071112 40 269 2.0 6.0 0.00 0.00 0.00 48 1014.4
20260507070215 39 253 0.0 4.0 0.00 0.00 0.00 51 1014.4
20260507065405 41 123 2.0 2.0 0.00 0.00 0.00 52 1014.5
20260507064504 39 225 0.0 1.0 0.00 0.00 0.00 54 1014.5
20260507063816 39 225 1.0 1.0 0.00 0.00 0.00 55 1014.5
20260507062703 38 135 1.0 1.0 0.00 0.00 0.00 59 1014.5
20260507061803 36 0 0.0 0.0 0.00 0.00 0.00 61 1014.3
20260507061113 35 0 0.0 0.0 0.00 0.00 0.00 62 1014.4
20260507060003 34 0 0.0 0.0 0.00 0.00 0.00 65 1014.4
20260507055403 33 120 0.0 1.0 0.00 0.00 0.00 66 1014.2
20260507054714 33 121 0.0 1.0 0.00 0.00 0.00 68 1014.2
20260507053817 32 112 0.0 1.0 0.00 0.00 0.00 69 1014.3
20260507052703 30 112 0.0 1.0 0.00 0.00 0.00 73 1014.2
20260507052016 28 112 0.0 1.0 0.00 0.00 0.00 74 1014.2
20260507050903 25 0 0.0 0.0 0.00 0.00 0.00 76 1014.2
20260507050216 24 0 0.0 0.0 0.00 0.00 0.00 76 1014.1
20260507045618 23 0 0.0 0.0 0.00 0.00 0.00 76 1014.0
20260507044503 23 0 0.0 0.0 0.00 0.00 0.00 76 1014.0
20260507043603 23 0 0.0 0.0 0.00 0.00 0.00 76 1014.0
20260507042703 23 0 0.0 0.0 0.00 0.00 0.00 76 1014.0
20260507041803 23 225 0.0 2.0 0.00 0.00 0.00 76 1013.9
20260507041114 23 39 0.0 2.0 0.00 0.00 0.00 76 1013.9
20260507040217 22 43 2.0 2.0 0.00 0.00 0.00 76 1014.0
20260507035613 22 25 1.0 2.0 0.00 0.00 0.00 76 1013.9
20260507034503 22 322 0.0 1.0 0.00 0.00 0.00 77 1013.7
20260507033813 21 67 0.0 1.0 0.00 0.00 0.00 75 1013.7
20260507032703 21 0 0.0 0.0 0.00 0.00 0.00 74 1013.8
20260507032013 22 0 0.0 0.0 0.00 0.00 0.00 74 1013.8
20260507030903 22 0 0.0 0.0 0.00 0.00 0.00 74 1013.6
20260507030003 22 135 0.0 2.0 0.00 0.00 0.00 73 1013.6
20260507025403 23 135 0.0 2.0 0.00 0.00 0.00 73 1013.6
20260507024503 23 67 0.0 2.0 0.00 0.00 0.00 73 1013.3
20260507023604 23 67 2.0 2.0 0.00 0.00 0.00 73 1013.3
20260507022916 23 135 0.0 2.0 0.00 0.00 0.00 73 1013.2
20260507021803 23 37 0.0 2.0 0.00 0.00 0.00 73 1013.1
20260507021116 23 31 2.0 2.0 0.00 0.00 0.00 72 1013.0
20260507020218 23 0 0.0 0.0 0.00 0.00 0.00 71 1013.1
20260507015615 23 0 0.0 0.0 0.00 0.00 0.00 71 1012.9
20260507014717 23 0 0.0 0.0 0.00 0.00 0.00 71 1013.0
20260507013603 24 0 0.0 0.0 0.00 0.00 0.00 69 1012.8
20260507012703 24 0 0.0 0.0 0.00 0.00 0.00 69 1012.8
20260507012014 24 270 0.0 1.0 0.00 0.00 0.00 68 1012.6
20260507010003 25 0 0.0 0.0 0.00 0.00 0.00 68 1012.4
20260507005615 25 0 0.0 0.0 0.00 0.00 0.00 68 1012.4
20260507004503 26 247 0.0 2.0 0.00 0.00 0.00 68 1012.3
20260507003603 26 292 0.0 2.0 0.00 0.00 0.00 68 1012.2
20260507002912 27 279 2.0 3.0 0.00 0.00 0.00 68 1012.3
20260507002015 26 289 3.0 4.0 0.00 0.00 0.00 69 1012.3
20260507001117 27 288 2.0 2.0 0.00 0.00 0.00 68 1012.4
20260507000003 26 37 1.0 2.0 0.00 0.00 0.00 68 1012.4
20260506235403 26 38 0.0 3.0 0.00 0.00 0.00 68 1012.5